(°C)
27°
26°
25°
23°
21°
19°
18°
(°C)
28°
26°
24°
22°
20°
19°
18°
WNW
WNW
W
W
W
W
WNW
(km/h)
8-17
9-18
9-18
9-17
8-14
5-10
4-8
(mm)
0
0
0
2.7
3.2
0
0
(%)
27
44
44
52
52
45
28

Sonnenhöhe

/ 57°
sun-icon
UV 8
06:20
20:45
Vollmond (185°)
21:26
06:22

METAR für Ioannina (LGIO)

Zeit Bedingungen Temperatur/
Taupunkt
Wind Sichtweite Wetter Wolken Druck Änderung Roh
28°C / 11°C 330º variable 290º to 010º 7kt - 1019 - LGIO 161150Z AUTO 33007KT 290V010 //// // ////// 28/11 Q1019 RE//
28°C / 11°C 310º variable 280º to 010º 6kt - 1019 - LGIO 161120Z AUTO 31006KT 280V010 //// // ////// 28/11 Q1019 RE//
VFR 27°C / 13°C 360º 6kt >10km - Few Clouds 3500ft 1019 - LGIO 161050Z 36006KT 9999 FEW035 27/13 Q1019
VFR 26°C / 14°C 20º 5kt >10km - Few Clouds 3500ft 1020 - LGIO 161020Z 02005KT 9999 FEW035 26/14 Q1020
VFR 25°C / 14°C 360º 5kt >10km - Few Clouds 3500ft 1020 - LGIO 160950Z 36005KT 9999 FEW035 25/14 Q1020
VFR 24°C / 15°C 350º 4kt >10km - Few Clouds 3500ft 1021 - LGIO 160920Z 35004KT 9999 FEW035 24/15 Q1021
VFR 22°C / 15°C variable 2kt >10km - Few Clouds 3500ft 1021 - LGIO 160820Z VRB02KT 9999 FEW035 22/15 Q1021
VFR 21°C / 15°C variable 2kt >10km - Few Clouds 3500ft 1021 - LGIO 160750Z VRB02KT 9999 FEW035 21/15 Q1021
VFR 19°C / 15°C variable 2kt >10km - Few Clouds 3500ft 1021 - LGIO 160720Z VRB02KT 9999 FEW035 19/15 Q1021
VFR 18°C / 14°C variable 3kt >10km - Few Clouds 200ft 1021 - LGIO 160650Z VRB03KT 9999 FEW002 18/14 Q1021
MVFR 16°C / 15°C variable 0kt 7000m - Scattered Clouds 200ft 1021 - LGIO 160620Z 00000KT 7000 SCT002 16/15 Q1021
14°C / 14°C variable 1kt - 1021 - LGIO 160550Z AUTO VRB01KT //// // ////// 14/14 Q1021 RE//
13°C / 13°C variable 2kt - 1021 - LGIO 160520Z AUTO VRB02KT //// // ////// 13/13 Q1021 RE//
12°C / 12°C variable 1kt - 1021 - LGIO 160450Z AUTO VRB01KT //// // ////// 12/12 Q1021 RE//
11°C / 11°C variable 1kt - 1021 - LGIO 160420Z AUTO VRB01KT //// // ////// 11/11 Q1021 RE//
10°C / 10°C variable 0kt - 1020 - LGIO 160350Z AUTO 00000KT //// // ////// 10/10 Q1020 RE//
10°C / 10°C variable 2kt - 1020 - LGIO 160320Z AUTO VRB02KT //// // ////// 10/10 Q1020 RE//
10°C / 10°C variable 1kt - 1020 - LGIO 160250Z AUTO VRB01KT //// // ////// 10/10 Q1020 RE//
11°C / 11°C variable 1kt - 1020 - LGIO 160220Z AUTO VRB01KT //// // ////// 11/11 Q1020 RE//
11°C / 11°C variable 1kt - 1020 - LGIO 160150Z AUTO VRB01KT //// // ////// 11/11 Q1020 RE//
12°C / 12°C variable 1kt - 1020 - LGIO 160120Z AUTO VRB01KT //// // ////// 12/12 Q1020 RE//
12°C / 12°C variable 0kt - 1020 - LGIO 160050Z AUTO 00000KT //// // ////// 12/12 Q1020 RE//
12°C / 12°C variable 1kt - 1020 - LGIO 160020Z AUTO VRB01KT //// // ////// 12/12 Q1020 RE//
13°C / 13°C variable 1kt - 1020 - LGIO 152350Z AUTO VRB01KT //// // ////// 13/13 Q1020 RE//

28°C / 11°C

[Mehr]
Wind 330º variable 290º to 010º 7kt
Sichtweite
Wetter -
Wolken
Druck 1019
Änderung -
Roh LGIO 161150Z AUTO 33007KT 290V010 //// // ////// 28/11 Q1019 RE//

28°C / 11°C

[Mehr]
Wind 310º variable 280º to 010º 6kt
Sichtweite
Wetter -
Wolken
Druck 1019
Änderung -
Roh LGIO 161120Z AUTO 31006KT 280V010 //// // ////// 28/11 Q1019 RE//

VFR

27°C / 13°C

[Mehr]
Wind 360º 6kt
Sichtweite >10km
Wetter -
Wolken Few Clouds 3500ft
Druck 1019
Änderung -
Roh LGIO 161050Z 36006KT 9999 FEW035 27/13 Q1019

VFR

26°C / 14°C

[Mehr]
Wind 20º 5kt
Sichtweite >10km
Wetter -
Wolken Few Clouds 3500ft
Druck 1020
Änderung -
Roh LGIO 161020Z 02005KT 9999 FEW035 26/14 Q1020

VFR

25°C / 14°C

[Mehr]
Wind 360º 5kt
Sichtweite >10km
Wetter -
Wolken Few Clouds 3500ft
Druck 1020
Änderung -
Roh LGIO 160950Z 36005KT 9999 FEW035 25/14 Q1020

VFR

24°C / 15°C

[Mehr]
Wind 350º 4kt
Sichtweite >10km
Wetter -
Wolken Few Clouds 3500ft
Druck 1021
Änderung -
Roh LGIO 160920Z 35004KT 9999 FEW035 24/15 Q1021

VFR

22°C / 15°C

[Mehr]
Wind variable 2kt
Sichtweite >10km
Wetter -
Wolken Few Clouds 3500ft
Druck 1021
Änderung -
Roh LGIO 160820Z VRB02KT 9999 FEW035 22/15 Q1021

VFR

21°C / 15°C

[Mehr]
Wind variable 2kt
Sichtweite >10km
Wetter -
Wolken Few Clouds 3500ft
Druck 1021
Änderung -
Roh LGIO 160750Z VRB02KT 9999 FEW035 21/15 Q1021

VFR

19°C / 15°C

[Mehr]
Wind variable 2kt
Sichtweite >10km
Wetter -
Wolken Few Clouds 3500ft
Druck 1021
Änderung -
Roh LGIO 160720Z VRB02KT 9999 FEW035 19/15 Q1021

VFR

18°C / 14°C

[Mehr]
Wind variable 3kt
Sichtweite >10km
Wetter -
Wolken Few Clouds 200ft
Druck 1021
Änderung -
Roh LGIO 160650Z VRB03KT 9999 FEW002 18/14 Q1021

MVFR

16°C / 15°C

[Mehr]
Wind variable 0kt
Sichtweite 7000m
Wetter -
Wolken Scattered Clouds 200ft
Druck 1021
Änderung -
Roh LGIO 160620Z 00000KT 7000 SCT002 16/15 Q1021

14°C / 14°C

[Mehr]
Wind variable 1kt
Sichtweite
Wetter -
Wolken
Druck 1021
Änderung -
Roh LGIO 160550Z AUTO VRB01KT //// // ////// 14/14 Q1021 RE//

13°C / 13°C

[Mehr]
Wind variable 2kt
Sichtweite
Wetter -
Wolken
Druck 1021
Änderung -
Roh LGIO 160520Z AUTO VRB02KT //// // ////// 13/13 Q1021 RE//

12°C / 12°C

[Mehr]
Wind variable 1kt
Sichtweite
Wetter -
Wolken
Druck 1021
Änderung -
Roh LGIO 160450Z AUTO VRB01KT //// // ////// 12/12 Q1021 RE//

11°C / 11°C

[Mehr]
Wind variable 1kt
Sichtweite
Wetter -
Wolken
Druck 1021
Änderung -
Roh LGIO 160420Z AUTO VRB01KT //// // ////// 11/11 Q1021 RE//

10°C / 10°C

[Mehr]
Wind variable 0kt
Sichtweite
Wetter -
Wolken
Druck 1020
Änderung -
Roh LGIO 160350Z AUTO 00000KT //// // ////// 10/10 Q1020 RE//

10°C / 10°C

[Mehr]
Wind variable 2kt
Sichtweite
Wetter -
Wolken
Druck 1020
Änderung -
Roh LGIO 160320Z AUTO VRB02KT //// // ////// 10/10 Q1020 RE//

10°C / 10°C

[Mehr]
Wind variable 1kt
Sichtweite
Wetter -
Wolken
Druck 1020
Änderung -
Roh LGIO 160250Z AUTO VRB01KT //// // ////// 10/10 Q1020 RE//

11°C / 11°C

[Mehr]
Wind variable 1kt
Sichtweite
Wetter -
Wolken
Druck 1020
Änderung -
Roh LGIO 160220Z AUTO VRB01KT //// // ////// 11/11 Q1020 RE//

11°C / 11°C

[Mehr]
Wind variable 1kt
Sichtweite
Wetter -
Wolken
Druck 1020
Änderung -
Roh LGIO 160150Z AUTO VRB01KT //// // ////// 11/11 Q1020 RE//

12°C / 12°C

[Mehr]
Wind variable 1kt
Sichtweite
Wetter -
Wolken
Druck 1020
Änderung -
Roh LGIO 160120Z AUTO VRB01KT //// // ////// 12/12 Q1020 RE//

12°C / 12°C

[Mehr]
Wind variable 0kt
Sichtweite
Wetter -
Wolken
Druck 1020
Änderung -
Roh LGIO 160050Z AUTO 00000KT //// // ////// 12/12 Q1020 RE//

12°C / 12°C

[Mehr]
Wind variable 1kt
Sichtweite
Wetter -
Wolken
Druck 1020
Änderung -
Roh LGIO 160020Z AUTO VRB01KT //// // ////// 12/12 Q1020 RE//

13°C / 13°C

[Mehr]
Wind variable 1kt
Sichtweite
Wetter -
Wolken
Druck 1020
Änderung -
Roh LGIO 152350Z AUTO VRB01KT //// // ////// 13/13 Q1020 RE//

TAF für Ioannina (LGIO)

From till


From till Wind variable 3kt. Visibility 10km or more. Few Clouds 2500ft. Scattered Clouds 8000ft.
With 40% probability, Temporarly from till Visibility 5000m. Showers Rain . Few Clouds 2000ft. Scattered Clouds 2500ft. Broken Clouds 8000ft.
Becoming from till Wind variable 3kt. Visibility 10km or more. Few Clouds 2500ft.

Roh: TAF LGIO 161100Z 1612/1621 VRB03KT 9999 FEW025 SCT080 PROB40 TEMPO 1612/1616 5000 SHRA FEW020TCU SCT025 BKN080 BECMG 1616/1618 FEW025

Radar- und Niederschlags-Nowcast für Ioannina

Nieselregen
Leicht
Moderat
Stark
Sehr schwer
Hagel

Die Ortsmarkierung zeigt auf Ioannina. Diese Animation zeigt das Niederschlagsradar der letzten Stunde, sowie eine 1h Vorhersage. Nieselregen und leichter Schneefall können für das Radar unsichtbar sein. Die Niederschlagsintensität ist farbcodiert von Hellblau bis Orange.

Aktuelle Satelliten- und Regenbilder für Ioannina, Griechenland

Die Standortmarkierung ist platziert auf Ioannina. [Mehr]

Das Echtzeit-Satellitenbild kombiniert sichtbares Licht während des Tages mit Infrarotstrahlung während der Nacht. Nachts ist das Bild nicht dunkel, da Infrarotstrahlung Temperaturunterschiede erkennen kann. Leider sind niedrige Wolken und Nebel nur schwer von den Bodentemperaturen zu unterscheiden und können daher nachts fast unsichtbar sein. Meteosat-Satellitenbilder für Europa werden alle 5 Minuten in Echtzeit aktualisiert. Die Bilder GOES-16 / GOES-17 (Nord- und Südamerika) und Himawari (Asien) werden alle 10 Minuten aktualisiert.

Niederschläge werden von Radar und Satelliten berechnet. Nachts sind die Niederschlagsberechnungen durch die Satelliten weniger genau als tagsüber. Orangene Kreuze markieren Stellen, an denen Blitze aufgenommen wurden (über Europa).

Copyright 2022 EUMETSAT / meteoblue. Blitzdaten zur Verfügung gestellt von nowcast.

Zum Anfang